Location: Unspecified
(49.9820°N, 20.4363°E)
Time: 04:05:36
(UTC+01:00)

ISS - Visible Passes

Search period start: 22 March 2023 00:00
Search period end: 01 April 2023 01:00
Orbit: 414 x 423 km, 51.6° (Epoch: 22 March)

Date Brightness Start Highest point End Pass type
(mag) Time Alt. Az. Time Alt. Az. Time Alt. Az.
22 Mar -3.8 18:42:07 10° WSW 18:45:29 89° NNW 18:48:41 11° ENE visible
22 Mar -2.7 20:19:05 10° W 20:21:37 45° NW 20:21:37 45° NW visible
23 Mar -3.5 19:31:13 10° W 19:34:33 63° N 19:35:46 34° ENE visible
23 Mar -0.7 21:08:05 10° WNW 21:08:43 15° WNW 21:08:43 15° WNW visible
24 Mar -3.5 18:43:18 10° W 18:46:39 66° N 18:49:51 11° ENE visible
24 Mar -2.9 20:20:14 10° WNW 20:22:47 49° WNW 20:22:47 49° WNW visible
25 Mar -3.7 19:32:19 10° WNW 19:35:41 69° N 19:36:50 37° E visible
25 Mar -0.7 21:09:11 10° WNW 21:09:46 14° W 21:09:46 14° W visible
26 Mar -3.5 19:44:23 10° W 19:47:43 64° N 19:50:50 11° E visible
26 Mar -2.8 21:21:14 10° WNW 21:23:46 45° W 21:23:46 45° W visible
27 Mar -3.8 20:33:16 10° WNW 20:36:38 83° SSW 20:37:45 39° ESE visible
27 Mar -0.6 22:10:24 10° W 22:10:41 12° W 22:10:41 12° W visible
28 Mar -3.7 19:45:17 10° WNW 19:48:39 80° NNE 19:51:44 12° E visible
28 Mar -2.3 21:22:13 10° W 21:24:40 30° SW 21:24:40 30° SW visible
29 Mar -3.1 20:34:07 10° WNW 20:37:21 46° SSW 20:38:39 29° SSE visible
30 Mar -3.5 19:46:02 10° WNW 19:49:22 64° SSW 19:52:38 10° ESE visible
30 Mar -1.4 21:23:34 10° W 21:25:34 16° SW 21:25:34 16° SW visible
31 Mar -1.9 20:35:04 10° W 20:37:48 23° SW 20:39:36 15° S visible
